Wednesday, November 22, 2017, 4:37 PM GMT
Back to Local

CWBK, Caribou Point Meteorological Aeronautical Presentation System

Location: , , Canada Lat: 45.767
Local Time: 4:37 PM GMT (16:37 GMT) Lon: -62.683
Time Zone: GMT Elev: 6 ft

Show me the last for .
Show Coded

Time T Td Feel RH Dir Speed Gust Alt SLP Vis Weather Sky Remarks
2017-11-22 16:00 55 43 - 65 210° 6 17 - 30.05 0 None
2017-11-22 15:00 53 47 - 80 200° 5 - - 30.07 0 None
2017-11-22 14:00 47 46 43 96 180° 9 - - 30.07 0 None
2017-11-22 13:00 45 43 43 92 200° 5 - - 30.09 0 None
2017-11-22 12:00 42 40 40 91 190° 3 - - 30.08 0 None
2017-11-22 11:00 41 38 37 90 190° 6 - - 30.06 0 None
2017-11-22 10:00 42 38 36 88 180° 8 - - 30.06 0 None
2017-11-22 09:00 44 41 43 87 230° 3 - - 30.07 0 None
2017-11-22 08:00 45 41 43 86 230° 3 - - 30.06 0 None
2017-11-22 07:00 46 42 42 86 220° 7 - - 30.07 0 None
2017-11-22 06:00 45 41 42 85 210° 6 - - 30.07 0 None
2017-11-22 05:00 44 41 41 88 210° 5 - - 30.07 0 None
2017-11-22 04:00 42 38 37 87 180° 7 - - 30.08 0 None
2017-11-22 03:00 40 36 35 86 190° 7 - - 30.07 0 None
2017-11-22 02:00 38 33 32 83 170° 8 - - 30.09 0 None
2017-11-22 01:00 35 28 29 74 190° 7 - - 30.09 0 None
2017-11-22 00:00 33 25 27 69 170° 7 - - 30.10 0 None
2017-11-21 23:00 34 24 26 66 170° 10 - - 30.11 0 None
2017-11-21 22:00 34 26 27 70 170° 8 - - 30.12 0 None
2017-11-21 21:00 35 26 30 68 210° 6 - - 30.11 0 None
2017-11-21 20:00 36 24 31 59 220° 7 - - 30.10 0 None
2017-11-21 19:00 39 20 34 47 230° 6 - - 30.09 0 None
2017-11-21 18:00 37 19 31 48 240° 7 - - 30.08 0 None
2017-11-21 17:00 35 12 28 38 260° 9 - - 30.07 0 None

Support USWX by starting your Amazon purchase here.